Time,TemperatureF,DewpointF,PressureIn,WindDirection,WindDirectionDegrees,WindSpeedMPH,WindSpeedGustMPH,Humidity,HourlyPrecipIn,Conditions,Clouds,dailyrainin,SoftwareType,DateUTC
2013-06-09 00:08:00,62.0,56.0,30.02,SSW,205,3.0,-999.0,80,-99.99,,,0.00,weatherlink.com 1.10,2013-06-09 04:08:00,
2013-06-09 00:23:00,62.0,55.0,30.02,SSW,199,3.0,-999.0,79,-99.99,,,0.00,weatherlink.com 1.10,2013-06-09 04:23:00,
2013-06-09 00:38:00,61.8,55.0,30.02,SSW,208,3.0,-999.0,79,-99.99,,,0.00,weatherlink.com 1.10,2013-06-09 04:38:00,
2013-06-09 00:53:00,61.2,55.0,30.02,SSE,167,1.0,-999.0,80,-99.99,,,0.00,weatherlink.com 1.10,2013-06-09 04:53:00,
2013-06-09 01:08:00,60.8,55.0,30.02,South,178,4.0,-999.0,82,-99.99,,,0.00,weatherlink.com 1.10,2013-06-09 05:08:00,
2013-06-09 01:23:00,60.9,55.0,30.02,SSW,207,3.0,-999.0,82,-99.99,,,0.00,weatherlink.com 1.10,2013-06-09 05:23:00,
2013-06-09 01:38:00,61.0,56.0,30.03,SSW,212,3.0,-999.0,82,-99.99,,,0.00,weatherlink.com 1.10,2013-06-09 05:38:00,
2013-06-09 01:54:00,60.7,56.0,30.03,South,179,5.0,-999.0,83,-99.99,,,0.00,weatherlink.com 1.10,2013-06-09 05:54:00,
2013-06-09 02:09:00,60.0,55.0,30.02,SSE,168,0.0,-999.0,84,-99.99,,,0.00,weatherlink.com 1.10,2013-06-09 06:09:00,
2013-06-09 02:24:00,60.1,56.0,30.02,SSW,202,0.0,-999.0,85,-99.99,,,0.00,weatherlink.com 1.10,2013-06-09 06:24:00,
2013-06-09 02:39:00,59.3,55.0,30.03,SSE,147,0.0,-999.0,84,-99.99,,,0.00,weatherlink.com 1.10,2013-06-09 06:39:00,
2013-06-09 02:54:00,58.7,54.0,30.03,SE,142,0.0,-999.0,85,-99.99,,,0.00,weatherlink.com 1.10,2013-06-09 06:54:00,
2013-06-09 03:09:00,58.9,55.0,30.03,SSE,152,0.0,-999.0,86,-99.99,,,0.00,weatherlink.com 1.10,2013-06-09 07:09:00,
2013-06-09 03:24:00,59.0,55.0,30.03,SSE,152,2.0,-999.0,85,-99.99,,,0.00,weatherlink.com 1.10,2013-06-09 07:24:00,
2013-06-09 03:39:00,59.1,55.0,30.03,SE,130,1.0,-999.0,86,-99.99,,,0.00,weatherlink.com 1.10,2013-06-09 07:39:00,
2013-06-09 03:54:00,59.3,55.0,30.03,SE,140,1.0,-999.0,85,-99.99,,,0.00,weatherlink.com 1.10,2013-06-09 07:54:00,
2013-06-09 04:09:00,59.3,55.0,30.03,SE,139,4.0,-999.0,86,-99.99,,,0.00,weatherlink.com 1.10,2013-06-09 08:09:00,
2013-06-09 04:24:00,59.3,55.0,30.03,SE,140,2.0,-999.0,86,-99.99,,,0.00,weatherlink.com 1.10,2013-06-09 08:24:00,
2013-06-09 04:39:00,59.2,55.0,30.03,South,173,1.0,-999.0,86,-99.99,,,0.00,weatherlink.com 1.10,2013-06-09 08:39:00,
2013-06-09 04:54:00,58.7,55.0,30.03,SE,135,0.0,-999.0,86,-99.99,,,0.00,weatherlink.com 1.10,2013-06-09 08:54:00,
2013-06-09 05:09:00,58.2,54.0,30.03,SSE,164,1.0,-999.0,87,-99.99,,,0.00,weatherlink.com 1.10,2013-06-09 09:09:00,
2013-06-09 05:24:00,58.1,54.0,30.03,South,173,1.0,-999.0,87,-99.99,,,0.00,weatherlink.com 1.10,2013-06-09 09:24:00,
2013-06-09 05:39:00,58.2,54.0,30.03,South,180,0.0,-999.0,87,-99.99,,,0.00,weatherlink.com 1.10,2013-06-09 09:39:00,
2013-06-09 05:54:00,58.5,54.0,30.04,SSE,149,2.0,-999.0,86,-99.99,,,0.00,weatherlink.com 1.10,2013-06-09 09:54:00,
2013-06-09 06:09:00,58.5,54.0,30.04,SSE,161,2.0,-999.0,86,-99.99,,,0.00,weatherlink.com 1.10,2013-06-09 10:09:00,
2013-06-09 06:24:00,58.5,54.0,30.04,SSE,149,1.0,-999.0,86,-99.99,,,0.00,weatherlink.com 1.10,2013-06-09 10:24:00,
2013-06-09 06:39:00,58.4,55.0,30.05,SSE,150,1.0,-999.0,87,-99.99,,,0.00,weatherlink.com 1.10,2013-06-09 10:39:00,
2013-06-09 06:54:00,58.6,55.0,30.05,SSE,153,1.0,-999.0,87,-99.99,,,0.00,weatherlink.com 1.10,2013-06-09 10:54:00,
2013-06-09 07:09:00,59.2,55.0,30.05,SSE,148,2.0,-999.0,86,-99.99,,,0.00,weatherlink.com 1.10,2013-06-09 11:09:00,
2013-06-09 07:24:00,60.0,56.0,30.05,SSE,153,1.0,-999.0,85,-99.99,,,0.00,weatherlink.com 1.10,2013-06-09 11:24:00,
2013-06-09 07:39:00,60.6,56.0,30.05,South,188,3.0,-999.0,84,-99.99,,,0.00,weatherlink.com 1.10,2013-06-09 11:39:00,
2013-06-09 07:54:00,61.6,56.0,30.05,South,182,3.0,-999.0,82,-99.99,,,0.00,weatherlink.com 1.10,2013-06-09 11:54:00,
2013-06-09 08:09:00,62.3,56.0,30.05,SSE,163,1.0,-999.0,79,-99.99,,,0.00,weatherlink.com 1.10,2013-06-09 12:09:00,
2013-06-09 08:24:00,63.4,56.0,30.05,SSE,156,2.0,-999.0,77,-99.99,,,0.00,weatherlink.com 1.10,2013-06-09 12:24:00,
2013-06-09 08:39:00,64.4,57.0,30.05,South,176,5.0,-999.0,76,-99.99,,,0.00,weatherlink.com 1.10,2013-06-09 12:39:00,
2013-06-09 08:54:00,65.5,57.0,30.05,SSE,157,2.0,-999.0,73,-99.99,,,0.00,weatherlink.com 1.10,2013-06-09 12:54:00,
2013-06-09 09:09:00,65.9,57.0,30.05,South,186,3.0,-999.0,72,-99.99,,,0.00,weatherlink.com 1.10,2013-06-09 13:09:00,
2013-06-09 09:24:00,66.3,57.0,30.05,SW,219,6.0,-999.0,71,-99.99,,,0.00,weatherlink.com 1.10,2013-06-09 13:24:00,
2013-06-09 09:39:00,67.1,57.0,30.05,SSW,201,7.0,-999.0,70,-99.99,,,0.00,weatherlink.com 1.10,2013-06-09 13:39:00,
2013-06-09 09:54:00,68.0,57.0,30.05,South,186,3.0,-999.0,69,-99.99,,,0.00,weatherlink.com 1.10,2013-06-09 13:54:00,
2013-06-09 10:09:00,68.6,58.0,30.04,SW,220,5.0,-999.0,68,-99.99,,,0.00,weatherlink.com 1.10,2013-06-09 14:09:00,
2013-06-09 10:24:00,69.2,58.0,30.03,SW,216,4.0,-999.0,68,-99.99,,,0.00,weatherlink.com 1.10,2013-06-09 14:24:00,
2013-06-09 10:39:00,68.9,58.0,30.03,SW,224,8.0,-999.0,69,-99.99,,,0.00,weatherlink.com 1.10,2013-06-09 14:39:00,
2013-06-09 10:54:00,68.9,59.0,30.03,SSE,149,5.0,-999.0,70,-99.99,,,0.00,weatherlink.com 1.10,2013-06-09 14:54:00,
2013-06-09 11:09:00,70.1,59.0,30.03,SSW,213,5.0,-999.0,69,-99.99,,,0.00,weatherlink.com 1.10,2013-06-09 15:09:00,
2013-06-09 11:24:00,71.4,59.0,30.03,West,275,3.0,-999.0,65,-99.99,,,0.00,weatherlink.com 1.10,2013-06-09 15:24:00,
2013-06-09 11:39:00,70.9,59.0,30.04,West,275,7.0,-999.0,67,-99.99,,,0.00,weatherlink.com 1.10,2013-06-09 15:39:00,
2013-06-09 11:54:00,70.9,59.0,30.04,SSW,194,10.0,-999.0,66,-99.99,,,0.00,weatherlink.com 1.10,2013-06-09 15:54:00,
2013-06-09 12:09:00,70.8,59.0,30.03,SSW,213,10.0,-999.0,67,-99.99,,,0.00,weatherlink.com 1.10,2013-06-09 16:09:00,
2013-06-09 12:24:00,71.1,60.0,30.03,SW,232,12.0,-999.0,67,-99.99,,,0.00,weatherlink.com 1.10,2013-06-09 16:24:00,
2013-06-09 12:39:00,70.9,59.0,30.02,SE,143,7.0,-999.0,66,-99.99,,,0.00,weatherlink.com 1.10,2013-06-09 16:39:00,
2013-06-09 12:55:00,71.1,59.0,30.02,South,191,5.0,-999.0,65,-99.99,,,0.00,weatherlink.com 1.10,2013-06-09 16:55:00,
2013-06-09 13:10:00,71.0,59.0,30.02,ESE,121,5.0,-999.0,67,-99.99,,,0.00,weatherlink.com 1.10,2013-06-09 17:10:00,
2013-06-09 13:25:00,71.4,60.0,30.01,SSE,164,2.0,-999.0,67,-99.99,,,0.00,weatherlink.com 1.10,2013-06-09 17:25:00,
2013-06-09 13:40:00,72.6,59.0,30.01,SSE,159,7.0,-999.0,63,-99.99,,,0.00,weatherlink.com 1.10,2013-06-09 17:40:00,
2013-06-09 13:55:00,72.4,59.0,30.00,SSW,211,7.0,-999.0,64,-99.99,,,0.00,weatherlink.com 1.10,2013-06-09 17:55:00,
2013-06-09 14:10:00,72.4,59.0,30.00,SSE,161,4.0,-999.0,64,-99.99,,,0.00,weatherlink.com 1.10,2013-06-09 18:10:00,
2013-06-09 14:25:00,72.3,59.0,30.00,South,186,7.0,-999.0,64,-99.99,,,0.00,weatherlink.com 1.10,2013-06-09 18:25:00,
2013-06-09 14:40:00,72.2,58.0,30.00,SW,217,5.0,-999.0,62,-99.99,,,0.00,weatherlink.com 1.10,2013-06-09 18:40:00,
2013-06-09 14:55:00,72.4,59.0,29.99,South,186,3.0,-999.0,62,-99.99,,,0.00,weatherlink.com 1.10,2013-06-09 18:55:00,
2013-06-09 15:10:00,71.8,58.0,29.99,South,174,5.0,-999.0,62,-99.99,,,0.00,weatherlink.com 1.10,2013-06-09 19:10:00,
2013-06-09 15:25:00,71.3,58.0,29.98,South,176,7.0,-999.0,64,-99.99,,,0.00,weatherlink.com 1.10,2013-06-09 19:25:00,
2013-06-09 15:40:00,71.7,58.0,29.97,SE,145,6.0,-999.0,63,-99.99,,,0.00,weatherlink.com 1.10,2013-06-09 19:40:00,
2013-06-09 15:55:00,72.9,59.0,29.97,SE,129,7.0,-999.0,62,-99.99,,,0.00,weatherlink.com 1.10,2013-06-09 19:55:00,
2013-06-09 16:10:00,72.6,58.0,29.96,South,169,4.0,-999.0,60,-99.99,,,0.00,weatherlink.com 1.10,2013-06-09 20:10:00,
2013-06-09 16:25:00,72.5,58.0,29.95,ESE,112,9.0,-999.0,61,-99.99,,,0.00,weatherlink.com 1.10,2013-06-09 20:25:00,
2013-06-09 16:40:00,73.0,58.0,29.95,SSE,163,6.0,-999.0,59,-99.99,,,0.00,weatherlink.com 1.10,2013-06-09 20:40:00,
2013-06-09 16:55:00,72.8,57.0,29.95,SSE,163,4.0,-999.0,58,-99.99,,,0.00,weatherlink.com 1.10,2013-06-09 20:55:00,
2013-06-09 17:10:00,72.3,57.0,29.94,SSE,157,11.0,-999.0,59,-99.99,,,0.00,weatherlink.com 1.10,2013-06-09 21:10:00,
2013-06-09 17:25:00,72.5,57.0,29.94,SSW,197,8.0,-999.0,59,-99.99,,,0.00,weatherlink.com 1.10,2013-06-09 21:25:00,
2013-06-09 17:41:00,72.6,57.0,29.94,East,94,14.0,-999.0,59,-99.99,,,0.00,weatherlink.com 1.10,2013-06-09 21:41:00,
2013-06-09 17:55:00,72.4,57.0,29.93,SE,145,6.0,-999.0,58,-99.99,,,0.00,weatherlink.com 1.10,2013-06-09 21:55:00,
2013-06-09 18:10:00,72.3,57.0,29.93,SE,139,4.0,-999.0,59,-99.99,,,0.00,weatherlink.com 1.10,2013-06-09 22:10:00,
2013-06-09 18:25:00,71.9,57.0,29.93,East,82,6.0,-999.0,60,-99.99,,,0.00,weatherlink.com 1.10,2013-06-09 22:25:00,
2013-06-09 18:40:00,71.6,57.0,29.93,East,98,8.0,-999.0,61,-99.99,,,0.00,weatherlink.com 1.10,2013-06-09 22:40:00,
2013-06-09 18:55:00,71.5,57.0,29.93,SE,140,5.0,-999.0,61,-99.99,,,0.00,weatherlink.com 1.10,2013-06-09 22:55:00,
2013-06-09 19:10:00,71.6,57.0,29.93,SE,132,7.0,-999.0,61,-99.99,,,0.00,weatherlink.com 1.10,2013-06-09 23:10:00,
2013-06-09 19:25:00,71.4,57.0,29.92,SSE,159,5.0,-999.0,61,-99.99,,,0.00,weatherlink.com 1.10,2013-06-09 23:25:00,
2013-06-09 19:40:00,71.3,57.0,29.92,SSE,159,6.0,-999.0,61,-99.99,,,0.00,weatherlink.com 1.10,2013-06-09 23:40:00,
2013-06-09 19:55:00,71.2,56.0,29.92,SSE,155,9.0,-999.0,60,-99.99,,,0.00,weatherlink.com 1.10,2013-06-09 23:55:00,
2013-06-09 20:10:00,70.9,56.0,29.91,SSW,212,7.0,-999.0,60,-99.99,,,0.00,weatherlink.com 1.10,2013-06-10 00:10:00,
2013-06-09 20:25:00,70.5,56.0,29.91,SE,142,5.0,-999.0,61,-99.99,,,0.00,weatherlink.com 1.10,2013-06-10 00:25:00,
2013-06-09 20:40:00,70.2,56.0,29.91,SSE,163,2.0,-999.0,62,-99.99,,,0.00,weatherlink.com 1.10,2013-06-10 00:40:00,
2013-06-09 20:55:00,69.9,57.0,29.91,SSE,153,7.0,-999.0,63,-99.99,,,0.00,weatherlink.com 1.10,2013-06-10 00:55:00,
2013-06-09 21:10:00,69.5,57.0,29.91,ESE,105,8.0,-999.0,64,-99.99,,,0.00,weatherlink.com 1.10,2013-06-10 01:10:00,
2013-06-09 21:25:00,69.3,57.0,29.91,SE,144,6.0,-999.0,64,-99.99,,,0.00,weatherlink.com 1.10,2013-06-10 01:25:00,
2013-06-09 21:40:00,69.0,56.0,29.91,South,176,11.0,-999.0,64,-99.99,,,0.00,weatherlink.com 1.10,2013-06-10 01:40:00,
2013-06-09 21:55:00,68.6,56.0,29.91,SSE,151,5.0,-999.0,65,-99.99,,,0.00,weatherlink.com 1.10,2013-06-10 01:55:00,
2013-06-09 22:10:00,68.3,56.0,29.91,SE,144,5.0,-999.0,64,-99.99,,,0.00,weatherlink.com 1.10,2013-06-10 02:10:00,
2013-06-09 22:25:00,68.1,55.0,29.91,SE,132,6.0,-999.0,64,-99.99,,,0.00,weatherlink.com 1.10,2013-06-10 02:25:00,
2013-06-09 22:40:00,67.9,56.0,29.91,SE,140,5.0,-999.0,65,-99.99,,,0.00,weatherlink.com 1.10,2013-06-10 02:40:00,
2013-06-09 22:55:00,67.7,55.0,29.90,SSE,153,6.0,-999.0,64,-99.99,,,0.00,weatherlink.com 1.10,2013-06-10 02:55:00,
2013-06-09 23:10:00,67.5,54.0,29.89,SE,135,6.0,-999.0,62,-99.99,,,0.00,weatherlink.com 1.10,2013-06-10 03:10:00,
2013-06-09 23:25:00,67.2,54.0,29.89,SSE,157,11.0,-999.0,62,-99.99,,,0.00,weatherlink.com 1.10,2013-06-10 03:25:00,
2013-06-09 23:40:00,67.1,53.0,29.89,SSE,161,7.0,-999.0,62,-99.99,,,0.00,weatherlink.com 1.10,2013-06-10 03:40:00,
2013-06-09 23:55:00,66.9,53.0,29.89,South,180,1.0,-999.0,62,-99.99,,,0.00,weatherlink.com 1.10,2013-06-10 03:55:00,